Content
SEND FEEDBACK

Daily
Averages
Monthly
Summary
United States of America

GRASS VALLEY, CALIFORNIA


Home > North America > United States > California
Elevation: 2628 feet     Latitude: 39 16N     Longitude: 121 02W

WEATHER
 
SELECT A DAY
Number of Records: 59,436;   Date Range: 9/21/11 - 7/11/14
 
SHARE

PRINT THIS DATA

[ ← Previous Day ]
WEATHER ALMANAC - FEBRUARY 4, 2013
[ Next Day → ]
[ °C ]   °F
Weather ElementAverageHighLow
Temperature52.9 °F62.6 °F (1:35 pm)44.6 °F (6:55 am)
Dewpoint29.4 °F39.2 °F (2:55 pm)14 °F (3:15 am)
Humidity42.9 %66 % (5:55 pm)24 % (3:15 am)
Barometer30.12 in30.17 in (8:55 am)30.08 in (8:55 pm)
Wind Speed1.8 mph6.9 mph (2:15 pm)
Weather ElementAverage
Visibility10 mi
Wind DirectionENE (78.9 °)

Weather ElementTotal
Precipitation---
Heating Degree Days11.4 (Base 65)
Growing Degree Days3.6 (Base 50)
Averaged from 64 records on February 4, 2013
WEATHER CONDITIONS BREAKOUT
WIND DIRECTION BREAKOUT
WEATHER BY HOUR - FEBRUARY 4, 2013
[ °C ]   °F
Local TimeTemperatureDewpointHumidityBarometerVisibilityWind DirectionWind SpeedGust SpeedPrecipitationEventsConditions
12:35 AM50.0 °F17.6 °F28 %30.15 in10.0 miNE (50°)3.5 mphClear
12:55 AM50.0 °F17.6 °F28 %30.15 in10.0 miCalmClear
1:15 AM51.8 °F17.6 °F26 %30.15 in10.0 miCalmClear
2:55 AM48.2 °F15.8 °F27 %30.14 in10.0 miCalmClear
3:15 AM50.0 °F14.0 °F24 %30.14 in10.0 miCalmClear
3:35 AM50.0 °F15.8 °F26 %30.14 in10.0 miCalmClear
3:55 AM48.2 °F17.6 °F30 %30.14 in10.0 miCalmClear
4:15 AM50.0 °F17.6 °F28 %30.14 in10.0 miCalmClear
4:35 AM48.2 °F15.8 °F27 %30.13 in10.0 miCalmClear
4:55 AM50.0 °F14.0 °F24 %30.13 in10.0 miCalmClear
5:15 AM50.0 °F15.8 °F26 %30.13 in10.0 miCalmClear
5:35 AM50.0 °F15.8 °F26 %30.13 in10.0 miCalmClear
6:15 AM48.2 °F17.6 °F30 %30.13 in10.0 miNW (320°)3.5 mphClear
6:35 AM48.2 °F23.0 °F37 %30.13 in10.0 miNNW (340°)3.5 mphClear
6:55 AM44.6 °F24.8 °F46 %30.14 in10.0 miCalmClear
7:15 AM44.6 °F23.0 °F43 %30.14 in10.0 miCalmClear
7:55 AM46.4 °F26.6 °F46 %30.15 in10.0 miCalmClear
8:15 AM50.0 °F21.2 °F32 %30.15 in10.0 miCalmClear
8:35 AM50.0 °F23.0 °F35 %30.16 in10.0 miCalmClear
8:55 AM53.6 °F23.0 °F30 %30.17 in10.0 miCalmClear
9:15 AM53.6 °F26.6 °F35 %30.17 in10.0 miCalmClear
9:35 AM55.4 °F24.8 °F31 %30.17 in10.0 miCalmClear
9:55 AM55.4 °F19.4 °F25 %30.17 in10.0 miCalmClear
10:15 AM57.2 °F21.2 °F25 %30.17 in10.0 miCalmClear
10:35 AM57.2 °F23.0 °F27 %30.17 in10.0 miNW (310°)4.6 mphClear
10:55 AM57.2 °F26.6 °F31 %30.16 in10.0 miCalmClear
11:15 AM59.0 °F28.4 °F31 %30.16 in10.0 miCalmClear
11:35 AM59.0 °F28.4 °F31 %30.15 in10.0 miCalmClear
11:55 AM59.0 °F30.2 °F34 %30.14 in10.0 miWNW (300°)4.6 mphClear
12:15 PM59.0 °F30.2 °F34 %30.14 in10.0 miWNW (290°)5.8 mphClear
12:35 PM59.0 °F28.4 °F31 %30.13 in10.0 miWest (270°)4.6 mphClear
12:55 PM59.0 °F28.4 °F31 %30.13 in10.0 miWest (280°)3.5 mphClear
1:15 PM60.8 °F28.4 °F29 %30.11 in10.0 miCalmClear
1:35 PM62.6 °F32.0 °F32 %30.11 in10.0 miWest (260°)4.6 mphClear
1:55 PM62.6 °F35.6 °F37 %30.10 in10.0 miSW (230°)5.8 mphClear
2:15 PM59.0 °F37.4 °F45 %30.09 in10.0 miSW (230°)6.9 mphClear
2:35 PM59.0 °F37.4 °F45 %30.09 in10.0 miSW (230°)5.8 mphClear
2:55 PM57.2 °F39.2 °F51 %30.10 in10.0 miWest (280°)4.6 mphClear
3:15 PM57.2 °F37.4 °F48 %30.10 in10.0 miWNW (300°)4.6 mphClear
3:35 PM57.2 °F39.2 °F51 %30.09 in10.0 miCalmClear
3:55 PM57.2 °F37.4 °F48 %30.09 in10.0 miCalmClear
4:15 PM57.2 °F39.2 °F51 %30.09 in10.0 miCalmClear
4:35 PM57.2 °F39.2 °F51 %30.09 in10.0 miCalmClear
5:15 PM53.6 °F39.2 °F58 %30.10 in10.0 miCalmClear
5:35 PM51.8 °F39.2 °F62 %30.10 in10.0 miCalmClear
5:55 PM50.0 °F39.2 °F66 %30.10 in10.0 miCalmClear
6:15 PM50.0 °F39.2 °F66 %30.10 in10.0 miCalmClear
6:35 PM50.0 °F39.2 °F66 %30.10 in10.0 miCalmClear
6:55 PM50.0 °F39.2 °F66 %30.10 in10.0 miESE (120°)3.5 mphClear
7:15 PM50.0 °F39.2 °F66 %30.10 in10.0 miESE (110°)3.5 mphClear
7:35 PM50.0 °F39.2 °F66 %30.10 in10.0 miESE (120°)4.6 mphClear
7:55 PM50.0 °F39.2 °F66 %30.09 in10.0 miEast (90°)4.6 mphClear
8:15 PM50.0 °F39.2 °F66 %30.09 in10.0 miESE (110°)3.5 mphClear
8:35 PM50.0 °F39.2 °F66 %30.09 in10.0 miESE (110°)3.5 mphClear
8:55 PM51.8 °F37.4 °F58 %30.08 in10.0 miEast (100°)5.8 mphClear
9:15 PM51.8 °F37.4 °F58 %30.08 in10.0 miESE (120°)4.6 mphClear
9:35 PM51.8 °F37.4 °F58 %30.08 in10.0 miESE (110°)5.8 mphClear
9:55 PM53.6 °F35.6 °F51 %30.08 in10.0 miESE (110°)5.8 mphClear
10:15 PM51.8 °F35.6 °F54 %30.08 in10.0 miESE (120°)3.5 mphClear
10:35 PM50.0 °F35.6 °F58 %30.08 in10.0 miCalmClear
10:55 PM50.0 °F33.8 °F54 %30.08 in10.0 miCalmClear
11:15 PM50.0 °F33.8 °F54 %30.08 in10.0 miCalmClear
11:35 PM50.0 °F33.8 °F54 %30.08 in10.0 miSE (140°)3.5 mphClear
11:55 PM48.2 °F33.8 °F58 %30.08 in10.0 miCalmClear
Hourly data recorded from KGOO, located miles away from Grass Valley, California







STORIES FROM OUR PARTNERS